Kalamazoo, MI

9:48 PM EST on December 03, 2016 (GMT -0500)
Kalamazoo-Battle Creek International

Weather History for KAZO - September, 2013

Change the Weather History Date:

Friday, September 20, 2013

  Actual Average Record
Temperature  
Mean Temperature 68 °F 61 °F  
Max Temperature 73 °F 71 °F 89 °F (1948)
Min Temperature 63 °F 50 °F 32 °F (1956)
Degree Days  
Heating Degree Days 0 5  
Month to date heating degree days 54 55  
Since 1 July heating degree days 91 71  
Cooling Degree Days 3 1  
Month to date cooling degree days 81 48  
Year to date cooling degree days 709 659  
Growing Degree Days 18 (Base 50)    
Moisture  
Dew Point 66 °F    
Average Humidity 83    
Maximum Humidity 93    
Minimum Humidity 73    
Precipitation  
Precipitation 0.13 in 0.13 in 1.00 in (1983)
Month to date precipitation 1.55 2.64  
Year to date precipitation 30.64 26.23  
Sea Level Pressure  
Sea Level Pressure 29.81 in    
Wind  
Wind Speed 9 mph (SW)    
Max Wind Speed 16 mph    
Max Gust Speed 21 mph    
Visibility 7 miles    
Events Rain    
T = Trace of Precipitation, MM = Missing Value Source: NWS Daily Summary

Daily Weather History Graph

Daily Weather History Graph

Search for Another Location

Airport or City:

Trip Planner

Search our weather history database for the weather conditions in past years. The results will help you decide how hot, cold, wet, or windy it might be!

Date:

Astronomy

Sep. 20, 2013 Rise Set
Actual Time 7:27 AM EDT 7:42 PM EDT
Civil Twilight 6:59 AM EDT 8:10 PM EDT
Nautical Twilight 6:26 AM EDT 8:43 PM EDT
Astronomical Twilight 5:53 AM EDT 9:16 PM EDT
Moon 8:13 PM EDT (9/20) 8:43 AM EDT (9/20)
Length of Visible Light 13h 10m
Length of Day
12h 14m
Full, 98% of the Moon is Illuminated
Sep 20
Full
Sep 26
Last Quarter
Oct 4
New
Oct 11
First Quarter
Oct 18
Full

Hourly Weather History & Observations

Time (EDT) Temp. Dew Point Humidity Pressure Visibility Wind Dir Wind Speed Gust Speed Precip Events Conditions
12:53 AM 69.1 °F 66.0 °F 90% 29.88 in 10.0 mi South 6.9 mph - N/A   Scattered Clouds
1:53 AM 71.1 °F 68.0 °F 90% 29.87 in 8.0 mi South 11.5 mph - N/A   Overcast
2:53 AM 72.0 °F 69.1 °F 91% 29.85 in 8.0 mi SSW 10.4 mph - 0.07 in   Mostly Cloudy
3:53 AM 71.1 °F 69.1 °F 93% 29.84 in 6.0 mi South 4.6 mph - N/A   Mostly Cloudy
4:15 AM 71.6 °F 69.8 °F 94% 29.84 in 6.0 mi South 5.8 mph - N/A   Mostly Cloudy
4:53 AM 72.0 °F 69.1 °F 91% 29.82 in 4.0 mi SSW 13.8 mph 20.7 mph 0.06 in Rain Heavy Rain
5:23 AM 71.6 °F 69.8 °F 94% 29.82 in 7.0 mi South 9.2 mph - 0.00 in   Scattered Clouds
5:31 AM 71.6 °F 69.8 °F 94% 29.82 in 7.0 mi South 6.9 mph - 0.00 in   Mostly Cloudy
5:53 AM 72.0 °F 70.0 °F 93% 29.80 in 7.0 mi South 9.2 mph - 0.00 in   Overcast
6:50 AM 71.6 °F 69.8 °F 94% 29.81 in 7.0 mi SSW 12.7 mph - N/A   Scattered Clouds
6:53 AM 72.0 °F 69.1 °F 91% 29.80 in 6.0 mi SSW 11.5 mph - N/A   Scattered Clouds
7:26 AM 71.6 °F 69.8 °F 94% 29.82 in 3.0 mi SSW 11.5 mph - N/A   Mostly Cloudy
7:34 AM 71.6 °F 69.8 °F 94% 29.83 in 2.0 mi SSW 10.4 mph - N/A   Mostly Cloudy
7:53 AM 72.0 °F 69.1 °F 91% 29.82 in 2.0 mi SSW 9.2 mph - N/A   Mostly Cloudy
8:53 AM 72.0 °F 69.1 °F 91% 29.83 in 5.0 mi SW 9.2 mph - N/A   Mostly Cloudy
9:28 AM 71.6 °F 68.0 °F 88% 29.85 in 5.0 mi WSW 8.1 mph - N/A   Overcast
9:35 AM 71.6 °F 66.2 °F 83% 29.85 in 5.0 mi West 9.2 mph 17.3 mph N/A   Haze
9:53 AM 72.0 °F 66.0 °F 81% 29.84 in 5.0 mi WSW 8.1 mph - N/A   Haze
10:53 AM 71.1 °F 64.9 °F 81% 29.84 in 5.0 mi WSW 9.2 mph - N/A   Haze
11:20 AM 73.4 °F 64.4 °F 73% 29.85 in 5.0 mi WSW 10.4 mph - N/A   Haze
11:53 AM 72.0 °F 64.9 °F 78% 29.83 in 10.0 mi West 10.4 mph - N/A   Mostly Cloudy
12:53 PM 72.0 °F 64.0 °F 76% 29.83 in 10.0 mi SW 10.4 mph - N/A   Overcast
1:53 PM 72.0 °F 64.0 °F 76% 29.81 in 10.0 mi SW 12.7 mph - N/A   Overcast
2:53 PM 73.0 °F 64.0 °F 73% 29.80 in 10.0 mi WSW 8.1 mph - N/A   Overcast
3:53 PM 72.0 °F 64.9 °F 78% 29.78 in 3.0 mi SW 6.9 mph - 0.00 in Rain Light Rain
4:14 PM 71.6 °F 64.4 °F 78% 29.79 in 4.0 mi WSW 6.9 mph - 0.00 in   Haze
4:43 PM 71.6 °F 64.4 °F 78% 29.79 in 4.0 mi SW 5.8 mph - 0.00 in   Haze
4:53 PM 72.0 °F 64.9 °F 78% 29.77 in 4.0 mi SW 4.6 mph - 0.00 in   Haze
5:23 PM 71.6 °F 64.4 °F 78% 29.78 in 10.0 mi SW 5.8 mph - N/A   Overcast
5:53 PM 71.1 °F 64.9 °F 81% 29.77 in 10.0 mi SW 8.1 mph - N/A   Mostly Cloudy
6:53 PM 71.1 °F 64.9 °F 81% 29.77 in 10.0 mi WSW 4.6 mph - N/A   Scattered Clouds
7:53 PM 69.1 °F 64.0 °F 84% 29.76 in 10.0 mi WSW 4.6 mph - N/A   Clear
8:53 PM 68.0 °F 63.0 °F 84% 29.77 in 10.0 mi SW 4.6 mph - N/A   Mostly Cloudy
9:53 PM 68.0 °F 61.0 °F 78% 29.78 in 10.0 mi WNW 10.4 mph - N/A   Partly Cloudy
10:53 PM 66.0 °F 59.0 °F 78% 29.78 in 10.0 mi West 8.1 mph - N/A   Mostly Cloudy
11:46 PM 64.4 °F 57.2 °F 77% 29.79 in 10.0 mi NW 11.5 mph - N/A   Overcast
11:53 PM 64.9 °F 57.9 °F 78% 29.78 in 10.0 mi WNW 8.1 mph - N/A   Overcast